Location: ???
(60.6398°N, 46.9067°E)
Time: 18:26:38
(UTC+00:00)

Cosmos 1151 Rocket - Pass Details

Date: 08 December 2019
Orbit: 591 x 617 km, 82.5° (Epoch: 17 January)

Event Time Altitude Azimuth Distance (km) Brightness Sun altitude
Rises 13:17:10 0° 203° (SSW) 2,883 7.4 -9.7°
Reaches altitude 10° 13:19:24 10° 207° (SSW) 1,980 6.6 -10.0°
Maximum altitude 13:23:45 62° 289° (WNW) 698 3.5 -10.4°
Drops below altitude 10° 13:28:07 10° 10° (N) 1,983 5.3 -10.9°
Enters shadow 13:29:29 - 13° (NNE) 2,531 5.8 -11.1°
